www.pogodaiklimat.ru
ПОГОДА в Стокгольм аэропорту
Время
(UTC), дата
01 11.11
02 11.11
03 11.11
04 11.11
05 11.11
06 11.11
07 11.11
08 11.11
09 11.11
10 11.11
11 11.11
12 11.11
13 11.11
14 11.11
15 11.11
16 11.11
17 11.11
18 11.11
19 11.11
20 11.11
21 11.11
22 11.11
23 11.11
00 12.11
01 12.11
02 12.11
03 12.11
04 12.11
05 12.11
06 12.11
07 12.11
08 12.11
09 12.11
10 12.11
11 12.11
12 12.11
13 12.11
14 12.11
15 12.11
16 12.11
17 12.11
18 12.11
19 12.11
20 12.11
21 12.11
22 12.11
23 12.11
00 13.11
01 13.11
02 13.11
03 13.11
04 13.11
05 13.11
06 13.11
07 13.11
08 13.11
09 13.11
10 13.11
11 13.11
12 13.11
13 13.11
14 13.11
15 13.11
16 13.11
17 13.11
18 13.11
19 13.11
21 13.11
00 14.11
01 14.11
02 14.11
03 14.11
04 14.11
05 14.11
06 14.11
07 14.11
08 14.11
09 14.11
10 14.11
11 14.11
12 14.11
13 14.11
14 14.11
15 14.11
16 14.11
17 14.11
18 14.11
19 14.11
20 14.11
21 14.11
22 14.11
23 14.11
00 15.11
01 15.11
02 15.11
03 15.11
04 15.11
05 15.11
06 15.11
07 15.11
08 15.11
09 15.11
10 15.11
11 15.11
12 15.11
13 15.11
14 15.11
15 15.11
16 15.11
17 15.11
18 15.11
19 15.11
20 15.11
21 15.11
22 15.11
23 15.11
00 16.11
01 16.11
02 16.11
03 16.11
04 16.11
05 16.11
06 16.11
07 16.11
08 16.11
09 16.11
10 16.11
11 16.11
12 16.11
13 16.11
14 16.11
15 16.11
16 16.11
17 16.11
18 16.11
19 16.11
20 16.11
21 16.11
22 16.11
23 16.11
00 17.11
01 17.11
02 17.11
03 17.11
04 17.11
05 17.11
06 17.11
07 17.11
08 17.11
09 17.11
10 17.11
11 17.11
12 17.11
13 17.11
14 17.11
15 17.11
16 17.11
17 17.11
18 17.11
19 17.11
20 17.11
21 17.11
22 17.11
23 17.11
00 18.11
01 18.11
Ветер
(напр.,м/с)
Видим. Явления Облачность Т
(С)
Тd
(С)
f
(%)
Тe
(С)
Тes
(С)
Комфортность P
(гПа)
Po
(гПа)
Тmin
(С)
Tmax
(С)
R
(мм)
R24
(мм)
S
(см)
СЗ 1 45 км н/о -3.7 -4.3 96 -6 -6 холодно 1014.1 1008.9
С 2 1700 м дымка н/о -3.8 -4.2 97 -8 -8 очень
холодно
1013.8 1008.6
С 1 11 км н/о -3.5 -3.7 99 -6 -6 холодно 1013.6 1008.4
С 1 21 км н/о -4.0 -4.4 97 -7 -7 холодно 1013.4 1008.3
штиль 0 19 км н/о -3.9 -4.4 96 -5 -5 холодно 1013.4 1008.2
штиль 0 20 км н/о -3.8 -4.3 96 -5 -5 холодно 1013.0 1007.8 -4.0 +1.7
штиль 0 19 км н/о -3.9 -4.4 96 -5 -5 холодно 1012.7 1007.5
штиль 0 35 км н/о -3.6 -4.0 97 -5 -5 холодно 1012.3 1007.1
штиль 0 40 км н/о -2.8 -3.3 96 -4 -4 прохладно 1012.4 1007.2
В 1 9000 м слаб. ливневой снег н/о -1.7 -2.5 94 -4 -4 прохладно 1012.3 1007.1
В 1 40 км в посл. час снег н/о -1.0 -1.9 94 -3 -3 прохладно 1012.0 1006.9
В 2 35 км н/о -0.4 -1.3 94 -4 -4 прохладно 1011.7 1006.6
В 3 40 км н/о -0.2 -1.0 94 -5 -5 холодно 1011.0 1005.9
В 3 40 км н/о +0.2 -0.3 96 -5 -5 холодно 1010.8 1005.6
В 4 30 км н/о +0.2 -0.3 96 -5 -5 холодно 1010.6 1005.5
В 3 18 км в посл. час дождь н/о +0.7 +0.2 96 -4 -4 прохладно 1010.2 1005.1
ЮВ 3 45 км н/о +1.4 +0.9 96 -3 -3 прохладно 1009.9 1004.8
ЮВ 4 45 км н/о +2.3 +1.7 96 -3 -3 прохладно 1009.8 1004.7 -4.0 +2.3
ЮВ 3 30 км н/о +2.7 +2.1 96 -2 -2 по сезону 1009.9 1004.7
ЮВ 4 7000 м слаб. ливневой дождь н/о +3.3 +2.7 96 -2 -2 по сезону 1009.9 1004.8
ЮВ 4 23 км слаб. ливневой дождь н/о +3.7 +3.2 97 -1 -1 по сезону 1010.0 1004.9
ЮВ 4 17 км н/о +3.9 +3.4 97 -1 -1 по сезону 1010.3 1005.2
Ю 4 18 км н/о +3.8 +2.9 94 -1 -1 по сезону 1010.4 1005.3
ЮВ 3 14 км н/о +2.9 +2.1 94 -1 -1 по сезону 1010.7 1005.6
ЮВ 2 8000 м дымка н/о +1.6 +1.3 98 -2 -2 по сезону 1010.9 1005.7
ЮВ 3 13 км н/о +1.4 +1.1 98 -3 -3 прохладно 1010.8 1005.7
ЮВ 3 17 км н/о +1.7 +1.2 96 -3 -3 прохладно 1010.6 1005.5
ЮВ 3 14 км н/о +2.2 +1.6 96 -2 -2 по сезону 1010.0 1004.9
ЮВ 3 19 км н/о +3.0 +2.1 94 -1 -1 по сезону 1010.0 1004.9
ЮВ 5 35 км н/о +3.9 +2.0 87 -1 -1 по сезону 1009.9 1004.8 +1.1 +2.3
ЮВ 3 16 км н/о +3.3 +2.1 92 -1 -1 по сезону 1009.9 1004.8
В 3 24 км н/о +4.2 +2.0 86 +1 +1 по сезону 1009.6 1004.5
ЮВ 4 24 км н/о +4.4 +2.2 86 0 0 по сезону 1009.2 1004.1
Ю 4 16 км н/о +4.7 +2.2 84 +1 +1 по сезону 1008.8 1003.7
ЮВ 4 11 км н/о +4.8 +2.6 86 +1 +1 по сезону 1008.3 1003.2
ЮВ 5 27 км в посл. час дождь н/о +4.5 +3.0 90 -0 -0 по сезону 1007.5 1002.4
ЮВ 5 27 км н/о +4.4 +2.5 87 -1 -1 по сезону 1006.3 1001.2
ЮВ 4 20 км н/о +4.6 +2.6 87 0 0 по сезону 1005.6 1000.5
ЮВ 6 7000 м слаб. дождь н/о +4.8 +4.2 96 -1 -1 по сезону 1004.7 999.6
Ю 5 11 км дождь н/о +5.2 +4.0 92 0 0 по сезону 1004.2 999.1
Ю 7 7000 м слаб. дождь н/о +5.0 +4.2 95 -1 -1 по сезону 1004.1 999.1
Ю 5 15 км в посл. час дождь н/о +5.0 +4.1 94 0 0 по сезону 1004.2 999.1 +1.1 +5.3
Ю 5 13 км н/о +5.2 +4.1 93 0 0 по сезону 1004.5 999.5
Ю 4 11 км н/о +4.8 +3.9 94 0 0 по сезону 1005.0 999.9
Ю 4 12 км н/о +3.3 +2.4 94 -2 -2 по сезону 1005.4 1000.3
Ю 3 27 км н/о +2.4 +1.3 92 -2 -2 по сезону 1005.7 1000.6
ЮЗ 2 15 км н/о +1.9 +0.7 92 -2 -2 по сезону 1005.8 1000.6
Ю 2 13 км н/о +1.8 +1.0 94 -2 -2 по сезону 1006.0 1000.9
Ю 4 12 км н/о +2.7 +1.6 92 -2 -2 по сезону 1005.8 1000.7
Ю 1 9000 м н/о +1.9 +1.1 94 0 0 по сезону 1005.8 1000.7
ЮВ 2 15 км н/о +1.8 +1.3 96 -2 -2 по сезону 1005.6 1000.5
В 2 14 км н/о +2.1 +1.5 96 -1 -1 по сезону 1004.9 999.8
ЮВ 2 16 км н/о +2.6 +2.0 96 -1 -1 по сезону 1005.0 999.9
В 2 11 км слаб. ливневой дождь н/о +3.3 +2.7 96 0 0 по сезону 1004.5 999.4 +1.1 +5.3
В 2 11 км слаб. дождь н/о +3.3 +2.8 97 0 0 по сезону 1004.7 999.6
В 2 10 км слаб. дождь н/о +3.6 +3.1 97 0 0 по сезону 1004.7 999.6
СВ 1 7000 м слаб. дождь н/о +4.0 +3.7 98 +2 +2 по сезону 1004.6 999.5
СВ 1 8000 м слаб. дождь н/о +4.0 +3.7 98 +2 +2 по сезону 1003.8 998.7
СВ 1 5000 м слаб. дождь н/о +3.9 +3.7 99 +2 +2 по сезону 1003.7 998.6
СВ 1 1400 м слаб. ливневой дождь н/о +4.2 +4.0 99 +3 +3 по сезону 1003.2 998.1
штиль 0 9000 м в посл. час дождь н/о +4.2 +4.0 99 +3 +3 по сезону 1003.0 998.0
СВ 1 9000 м дымка н/о +4.1 +3.8 98 +2 +2 по сезону 1002.7 997.7
С 1 4200 м дымка н/о +3.8 +3.6 99 +2 +2 по сезону 1003.1 998.0
штиль 0 1000 м в посл. час туман н/о +3.6 +3.4 99 +2 +2 по сезону 1003.1 998.0
штиль 0 9000 м туман н/о +3.4 +3.3 99 +2 +2 по сезону 1003.1 998.1
штиль 0 600 м туман н/о +3.2 +3.1 99 +2 +2 по сезону 1003.5 998.4 +1.1 +4.4
С 1 900 м в посл. час туман н/о +3.1 +3.1 100 +1 +1 по сезону 1003.4 998.3
штиль 0 300 м туман н/о +2.7 +2.6 99 +1 +1 по сезону 1004.1 999.0
С 2 6000 м в посл. час туман н/о +1.4 +1.3 99 -2 -2 по сезону 1004.6 999.5
С 2 300 м туман н/о +1.8 +1.8 100 -2 -2 по сезону 1004.8 999.6
С 2 400 м туман н/о +1.8 +1.8 100 -2 -2 по сезону 1004.2 999.1
С 1 1600 м в посл. час туман н/о +2.0 +2.0 100 0 0 по сезону 1004.4 999.3
С 2 2200 м в посл. час туман н/о +2.5 +2.5 100 -1 -1 по сезону 1004.2 999.1
С 2 6000 м слаб. дождь н/о +2.8 +2.8 100 -1 -1 по сезону 1004.5 999.4
С 2 9000 м слаб. дождь н/о +2.8 +2.8 100 -1 -1 по сезону 1004.7 999.6 +1.3 +4.4
СЗ 2 7000 м слаб. дождь н/о +2.8 +2.8 100 -1 -1 по сезону 1004.6 999.5
С 3 12 км слаб. дождь н/о +2.9 +2.7 99 -1 -1 по сезону 1005.2 1000.1
СЗ 2 8000 м слаб. дождь н/о +2.9 +2.7 99 -0 -0 по сезону 1006.1 1001.0
СЗ 2 5000 м дождь н/о +2.6 +2.3 98 -1 -1 по сезону 1007.1 1002.0
З 2 7000 м слаб. дождь н/о +2.4 +2.1 98 -1 -1 по сезону 1008.2 1003.1
З 2 8000 м слаб. дождь н/о +2.2 +1.9 98 -1 -1 по сезону 1009.3 1004.1
З 1 12 км слаб. дождь н/о +2.1 +1.8 98 0 0 по сезону 1009.9 1004.8
ЮЗ 1 15 км в посл. час дождь н/о +2.3 +2.0 98 0 0 по сезону 1011.1 1005.9
З 1 15 км н/о +2.1 +1.8 98 0 0 по сезону 1012.3 1007.1
З 2 8000 м дымка н/о +2.1 +1.8 98 -1 -1 по сезону 1013.3 1008.1
ЮЗ 2 7000 м дымка н/о +2.2 +1.9 98 -1 -1 по сезону 1014.5 1009.3
ЮЗ 1 6000 м дымка н/о +2.4 +2.1 98 +1 +1 по сезону 1015.6 1010.4 +1.3 +2.9
ЮЗ 1 5000 м дымка н/о +2.4 +2.1 98 +1 +1 по сезону 1016.6 1011.4
штиль 0 11 км н/о +2.5 +2.2 98 +1 +1 по сезону 1017.2 1012.0
З 1 5000 м дымка н/о +2.5 +2.0 96 +1 +1 по сезону 1017.8 1012.6
штиль 0 10 км н/о +2.7 +2.2 97 +1 +1 по сезону 1018.9 1013.8
З 1 7000 м дымка н/о +2.5 +2.2 98 +1 +1 по сезону 1019.6 1014.5
ЮЗ 3 21 км н/о +2.8 +1.4 90 -1 -1 по сезону 1020.8 1015.6
штиль 0 16 км н/о +2.6 +1.8 94 +1 +1 по сезону 1021.7 1016.5
СВ 1 21 км н/о +2.7 +1.6 92 +1 +1 по сезону 1022.0 1016.8
штиль 0 10 км дымка н/о +2.2 +1.7 96 +1 +1 по сезону 1022.3 1017.1
Ю 2 22 км н/о +2.6 +1.8 94 -1 -1 по сезону 1023.0 1017.8
ЮВ 1 14 км н/о +2.7 +1.9 94 +1 +1 по сезону 1023.0 1017.9
штиль 0 12 км н/о +2.5 +1.9 96 +1 +1 по сезону 1023.5 1018.3 +2.2 +2.9
Ю 1 17 км н/о +2.5 +1.4 92 +1 +1 по сезону 1024.2 1019.0
ЮВ 1 13 км н/о +2.5 +1.3 92 +1 +1 по сезону 1024.7 1019.5
ЮВ 2 13 км н/о +2.1 +1.5 96 -1 -1 по сезону 1025.0 1019.9
В 2 6000 м дымка н/о +1.9 +1.4 96 -2 -2 по сезону 1025.2 1020.0
СВ 2 6000 м дымка н/о +1.9 +1.6 98 -2 -2 по сезону 1025.5 1020.3
СВ 2 1500 м дымка н/о +2.1 +1.9 99 -1 -1 по сезону 1025.5 1020.3
СВ 2 3400 м в посл. час туман н/о +2.0 +1.8 99 -2 -2 по сезону 1025.7 1020.5
СВ 2 400 м туман н/о +1.8 +1.6 99 -2 -2 по сезону 1025.5 1020.4
СВ 3 1700 м в посл. час туман н/о +1.7 +1.6 99 -3 -3 прохладно 1025.3 1020.2
СВ 3 400 м туман н/о +1.2 +1.1 99 -4 -4 прохладно 1025.0 1019.9
СВ 3 200 м туман н/о +0.9 +0.8 99 -4 -4 прохладно 1024.8 1019.6
СВ 3 300 м туман н/о +0.7 +0.6 99 -4 -4 прохладно 1024.5 1019.4 +2.2 +2.7
СВ 3 200 м туман н/о +0.7 +0.6 99 -4 -4 прохладно 1024.5 1019.3
СВ 3 300 м туман н/о +0.9 +0.8 99 -4 -4 прохладно 1024.0 1018.9
С 4 400 м туман н/о +1.0 +1.0 100 -5 -5 холодно 1023.4 1018.2
С 3 1300 м в посл. час туман н/о +1.5 +1.5 100 -3 -3 прохладно 1022.6 1017.4
СВ 3 2600 м в посл. час туман н/о +2.2 +2.1 99 -2 -2 по сезону 1022.2 1017.0
СВ 4 7000 м дымка н/о +2.6 +2.6 100 -3 -3 прохладно 1021.4 1016.2
СВ 4 8000 м дымка н/о +2.6 +2.6 100 -3 -3 прохладно 1020.7 1015.6
СВ 4 23 км н/о +2.6 +2.6 100 -3 -3 прохладно 1019.5 1014.3
СВ 4 19 км н/о +3.0 +3.0 100 -2 -2 по сезону 1019.1 1013.9
СВ 4 18 км н/о +3.5 +3.3 99 -1 -1 по сезону 1018.7 1013.6
СВ 5 19 км слаб. дождь н/о +3.9 +3.6 98 -1 -1 по сезону 1018.2 1013.1
СВ 5 7000 м слаб. ливневой дождь н/о +4.0 +3.7 98 -1 -1 по сезону 1018.1 1013.0 +0.6 +2.7
СВ 5 6000 м дымка н/о +4.0 +3.7 98 -1 -1 по сезону 1017.7 1012.6
СВ 4 9000 м дымка н/о +3.9 +3.6 98 -1 -1 по сезону 1017.2 1012.1
В 5 6000 м дымка н/о +4.3 +4.1 99 -1 -1 по сезону 1016.5 1011.3
В 4 5000 м дымка н/о +4.5 +4.3 99 -0 -0 по сезону 1016.1 1011.0
В 4 5000 м морось н/о +4.8 +4.6 99 0 0 по сезону 1015.5 1010.4
В 4 16 км в посл. час морось н/о +5.2 +5.0 99 +1 +1 по сезону 1014.8 1009.7
В 4 18 км н/о +5.4 +4.8 96 +1 +1 по сезону 1014.2 1009.1
В 5 14 км н/о +5.4 +4.6 95 +1 +1 по сезону 1013.1 1008.1
В 5 20 км н/о +5.3 +4.2 93 +1 +1 по сезону 1012.7 1007.6
В 4 8000 м дымка н/о +5.2 +4.4 95 +1 +1 по сезону 1012.1 1007.0
В 4 11 км слаб. дождь н/о +5.6 +4.5 93 +1 +1 по сезону 1011.6 1006.5
В 5 7000 м слаб. дождь н/о +5.7 +5.1 96 +1 +1 по сезону 1010.8 1005.7 +0.6 +5.7
В 5 8000 м дождь н/о +6.0 +5.4 96 +1 +1 по сезону 1009.5 1004.4
ЮВ 5 10 км слаб. дождь н/о +6.2 +5.6 96 +2 +2 по сезону 1009.3 1004.2
В 5 11 км слаб. дождь н/о +6.3 +5.7 96 +2 +2 по сезону 1008.7 1003.6
В 5 5000 м слаб. дождь н/о +6.4 +5.8 96 +2 +2 по сезону 1008.0 1003.0
В 4 2100 м слаб. ливневой дождь н/о +6.5 +6.2 98 +3 +3 по сезону 1007.5 1002.5
ЮВ 4 3200 м слаб. дождь н/о +6.8 +6.6 99 +3 +3 по сезону 1007.0 1001.9
ЮВ 4 1600 м слаб. ливневой дождь н/о +7.2 +7.1 99 +3 +3 по сезону 1006.7 1001.6
ЮВ 5 7000 м в посл. час морось н/о +7.6 +7.3 98 +4 +4 по сезону 1006.5 1001.4
Ю 7 22 км н/о +7.1 +5.7 91 +2 +2 по сезону 1006.9 1001.9
Ю 6 45 км н/о +6.6 +5.3 91 +2 +2 по сезону 1007.4 1002.3
Ю 6 50 км н/о +6.4 +4.8 89 +2 +2 по сезону 1007.9 1002.9
Ю 6 13 км морось н/о +6.2 +5.3 94 +1 +1 по сезону 1008.4 1003.4 +5.7 +5.7
Ю 6 17 км слаб. ливневой дождь н/о +6.4 +5.5 94 +2 +2 по сезону 1009.1 1004.0
Ю 7 7000 м в посл. час морось н/о +6.7 +5.4 91 +2 +2 по сезону 1009.6 1004.5
Ю 6 5000 м морось н/о +6.6 +5.7 94 +2 +2 по сезону 1010.7 1005.7
Ю 6 50 км в посл. час морось н/о +6.8 +5.9 94 +2 +2 по сезону 1011.6 1006.5
ЮЗ 6 50 км н/о +7.1 +5.7 91 +3 +3 по сезону 1012.5 1007.4
ЮЗ 6 50 км н/о +7.3 +5.6 89 +3 +3 по сезону 1013.2 1008.2
ЮЗ 5 50 км н/о +7.3 +5.9 91 +3 +3 по сезону 1013.9 1008.8
ЮЗ 5 45 км н/о +7.3 +5.7 90 +3 +3 по сезону 1015.0 1010.0
ЮЗ 5 50 км н/о +7.3 +5.6 89 +3 +3 по сезону 1015.7 1010.6
ЮЗ 4 45 км н/о +7.0 +5.4 90 +3 +3 по сезону 1016.2 1011.1
Ю 3 50 км н/о +7.0 +5.3 89 +4 +4 по сезону 1017.1 1012.0
ЮЗ 4 50 км н/о +6.8 +5.1 89 +3 +3 по сезону 1018.0 1012.9 +5.7 +7.5
Ю 3 50 км н/о +6.7 +5.1 90 +4 +4 по сезону 1018.3 1013.2
Ю 2 45 км н/о +6.4 +5.0 91 +4 +4 по сезону 1019.1 1014.0
ЮЗ 1 45 км н/о +6.0 +4.8 92 +5 +5 тепло 1019.1 1014.0
Ю 2 30 км н/о +4.7 +4.1 96 +2 +2 по сезону 1019.4 1014.3
ЮВ 1 5000 м дымка н/о +3.2 +2.9 98 +1 +1 по сезону 1020.3 1015.2
ЮВ 1 7000 м дымка н/о +2.4 +2.2 99 +1 +1 по сезону 1020.5 1015.3
штиль 0 6000 м дымка н/о +3.0 +2.8 99 +2 +2 по сезону 1020.3 1015.1
Местоположение метеостанции Стокгольм аэропорт (Швеция): широта 59.62 долгота 17.95 высота над уровнем моря 61 м.
В архиве по умолчанию представлена погода в Стокгольм аэропорту за последнюю неделю. Архивные данные за месяц целиком и за предыдущие месяцы, начиная с января 2011 года, Вы можете получить, выбрав интересующий диапазон дат из раскрывающегося списка и нажав кнопку "Найти!".
*Определитесь, кто Вы:
Внимание! Время в таблицах - всемирное. Для получения местного времени необходимо прибавить поправку, которая равна 1 ч.
Смотрите также архив погоды в соседних городах и на ближайших метеорологических станциях:
Партнеры нашего сайта:      
Пояснения к столбцам:
  • Ветер - указаны скорость ветра в м/с - средняя за 10 мин, порывы в срок и между сроками (в фигурных скобках) и направление, откуда дует ветер: С - северный,
  • СВ - северо-восточный, В - восточный, ЮВ - юго-восточный, Ю - южный, ЮЗ - юго-западный, З - западный, СЗ - северо-западный.
  • Видимость - горизонтальная дальность видимости в метрах или километрах. При видимости от 1 до 10 км при отсутствии осадков обычно наблюдается дымка, при ухудшении видимости до 1 км и менее - туман. В сухую погоду видимость может ухудшаться дымом, пылью или мглою.
  • Явления - указаны атмосферные явления, наблюдавшиеся в срок или в последний час перед сроком; фигурными скобками обозначены явления, наблюдавшиеся между сроками (за 1-3 часа до срока); квадратными скобками обозначены град или гололедные отложения с указанием их диаметра в мм.
  • Облачность - указаны через наклонную черту общая и нижняя облачность в баллах и высота нижней границы облаков в метрах; квадратными скобками обозначены формы облаков: Ci - перистые, Cs - перисто-слоистые, Cc - перисто-кучевые, Ac - высококучевые, As - высокослоистые, Sc - слоисто-кучевые, Ns - слоисто-дождевые, Cu - кучевые, Cb - кучево-дождевые. Подробнее классификацию облаков см. в Атласе облаков (PDF).
  • T - Температура воздуха - температура, измеренная на высоте 2 м над землей.
  • Td - Температура точки росы - температура, при понижении до которой содержащийся в воздухе водяной пар достигнет насыщения.
  • f - Относительная влажность воздуха - влажноcть воздуха, измеренная на высоте 2 м над землей.
  • Te - Эффективная температура - температура, которую ощущает одетый по сезону человек в тени. Характеристика душности погоды. При расчете учитывается влияние влажности воздуха и скорости ветра на теплоощущения человека.
  • Tes - Эффективная температура на солнце - температура, которую ощущает человек, с поправкой на солнечный нагрев. Характеристика знойности погоды. Зависит от высоты солнца над горизонтом, облачности и скорости ветра. Ночью, в пасмурную погоду, а также при ветре 12 м/с и более поправка равна нулю.
  • P - Атмосферное давление - приведенное к уровню моря атмосферное давление.
  • Po - Атмосферное давление - измеренное на уровне метеостанции атмосферное давление.
  • Tmin - Минимальная температура - минимум температуры воздуха на высоте 2 м над землей.
  • Tmax - Максимальная температура - максимум температуры воздуха на высоте 2 м над землей.
  • R - Количество осадков - Количество выпавших осадков за период времени, мм. При наведении курсора мыши на число - период времени, за который выпало указанное количество осадков.
  • R24 - Количество осадков - Количество выпавших осадков за 24 часа, мм.
  • S - Снежный покров - Высота снежного покрова, см. При наведении курсора мыши на число - состояние снежного покрова и степень покрытия местности в баллах.